Regional Weather Roundup
Issued by NWS Charleston, SC

Home | Current Version | Previous Version | Text Only | Print | Product List | Glossary On
Versions: 1 2 3 4 5 6 7 8 9 10 11 12 13 14 15 16 17 18 19 20 21 22 23 24 25 26 27 28 29 30 31 32 33 34 35 36 37 38 39 40 41 42 43 44 45 46 47 48 49 50
000
ASUS42 KCHS 022327
RWRCHS

REGIONAL WEATHER ROUNDUP
NATIONAL WEATHER SERVICE CHARLESTON SC
700 PM EDT WED SEP 02 2015

NOTE: "FAIR" INDICATES FEW OR NO CLOUDS BELOW 12,000 FEET WITH NO
SIGNIFICANT WEATHER AND/OR OBSTRUCTIONS TO VISIBILITY.

NOT ALL STATIONS ARE QUALITY CONTROLLED BY THE NATIONAL
WEATHER SERVICE. USE DATA WITH CAUTION...ESPECIALLY
DEWPOINT OBSERVATIONS.

SCZ027-030-031-034>040-042>050-030000-
...SOUTHEAST SOUTH CAROLINA...

CITY           SKY/WX    TMP DP  RH WIND       PRES   REMARKS
N CHARLESTON   MOCLDY    83  76  79 S8        29.98S HX  91
WATERFRONT PRK   N/A     83  78  84 SW7       29.95F HX  93
MOUNT PLEASANT LGT RAIN  82  77  83 S6        29.98S HX  91
JOHNS ISLAND   FAIR      82  77  83 SW3       29.97F HX  91
PINOPOLIS        N/A     91  75  59 VRB3      29.90F HX 102
MONCKS CORNER  FAIR      84  73  70 SW6       29.97F HX  91
SUMMERVILLE    FAIR      81  77  89 CALM      29.99S
BEAUFORT MCAS  CLOUDY    81  74  79 W3        29.99F
BEAUFORT ARPT  FAIR      81  77  89 CALM      29.98S
HILTON HEAD IS MOCLDY    79  75  89 CALM      30.00F
WALTERBORO     CLOUDY    82  73  74 SW7       29.99F
ALLENDALE      FAIR      79  75  89 S5        29.98S

...SOUTHERN MIDLANDS AND PEE DEE...

CITY           SKY/WX    TMP DP  RH WIND       PRES   REMARKS
GEORGETOWN     NOT AVBL
KINGSTREE      NOT AVBL
ORANGEBURG     LGT RAIN  82  74  76 SE5       29.98R
BARNWELL       FAIR      82  73  74 SW5       29.98F
AIKEN          FAIR      86  64  48 S3        30.01S
MANNING        FAIR      86  70  58 S3        29.96S HX  90
COLUMBIA       MOCLDY    91  67  44 SW5       29.95F HX  94
SUMTER         NOT AVBL
FLORENCE       PTCLDY    89  70  53 S6        29.95F HX  94
MYRTLE BEACH   PTCLDY    86  72  62 S8        29.98  HX  92
N MYRTLE BEACH PTCLDY    84  74  71 SW14      29.96F HX  91

$$

GAZ063-065-086>088-099>101-113>116-118-119-134>141-150-030000-
...SOUTHEAST GEORGIA...

CITY           SKY/WX    TMP DP  RH WIND       PRES   REMARKS
SAVANNAH ARPT  CLOUDY    78  74  87 S6        29.99F
HUNTER AAF     NOT AVBL
FORT STEWART   NOT AVBL
STATESBORO     MOCLDY    81  75  81 SE3       29.99F
SYLVANIA         N/A    N/A N/A N/A CALM      30.00S
CLAXTON        NOT AVBL

...CSRA...CENTRAL AND FAR SOUTHEAST GEORGIA...

CITY           SKY/WX    TMP DP  RH WIND       PRES   REMARKS
THOMSON        MOSUNNY   86  76  71 CALM      30.03S HX  95
AUGUSTA-BUSH   MOCLDY    86  73  65 S3        29.96S HX  93
AUGUSTA-DANIEL CLOUDY    90  68  48 NW3       29.98F HX  94
SWAINSBORO     FAIR      82  73  74 CALM      30.00F
VIDALIA        CLOUDY    81  73  78 CALM      29.99F
EASTMAN        FAIR      82  75  80 CALM      30.02S
HAZLEHURST     CLOUDY    78  78 100 CALM      29.99R
ALMA           CLOUDY    76  75  97 N3        29.98S
WAYCROSS       TSTM      78  78  99 W12G23    29.93F VSB 1
JESUP          RAIN      77  75  94 CALM      29.99R
BAXLEY         RAIN      77  75  94 SE3       29.98S
BRUNSWICK      CLOUDY    73  73 100 CALM      30.00S THUNDER
SAINT SIMONS   TSTM      77  75  93 W8        30.00R

$$

SCZ027-028-034-036>038-045-046-048>050-GAZ119-141-030000-
...LAKE AND SUPPLEMENTAL COASTAL OBSERVATIONS...

STATION/POSITION TIME  TEMP    WIND        PRES    WAVE   SWELL
                       AIR SEA DIR/SP/G            HT/PER HT/PER/DIR
                 (UTC) (F)     (DEG/KT/KT) (MB)    (FT/S) (FT/S/D)
UPR LAKE MARION  NOT AVBL
WINYAH BAY       2200   85     190/  7     1014.0
LAKE MURRAY      2200   92     190/  3/  5 1013.9F
ACE BASIN NERRS  NOT AVBL
FORT PULASKI     2300   79 83  250/  1/  2 1015.9F
SAPELO ISLAND    2300   75     100/  2     1015.0F

$$

ANZ835-935-AMZ111-154-330-350-352-354-370-450-454-472-030000-
...C-MAN AND BUOY OBSERVATIONS...

STATION/POSITION TIME  TEMP    WIND        PRES    WAVE   SWELL
                       AIR SEA DIR/SP/G            HT/PER HT/PER/DIR
                 (UTC) (F)     (DEG/KT/KT) (MB)    (FT/S) (FT/S/D)
BUOY 41004       2250   82 84  240/  6/  8 1015.0F   2/ 8   2/ 8
BUOY 41008       2250   80 84  100/  8/  8 1015.6F   2/ 9   2/ 90/ 9
FOLLY BEACH CMAN 2300   82     230/  5/  7 1015.4F
CAPERS NEARSHORE 2208   83     220/  8/ 12 1015.4F
FRIPP NEARSHORE  2200   81     250/  8/  8 1015.3F


STATION/POSITION TIME  TEMP    WIND        PRES    WAVE   SWELL
                       AIR SEA DIR/SP/G            HT/PER HT/PER/DIR
                 (UTC) (F)     (DEG/KT/KT) (MB)    (FT/S) (FT/S/D)
5E ST. MARYS GA  2221      86                N/A     2/ 9
FRYING PAN BUOY  2250   83 82  230/ 10/ 10 1015.0F   2/ 6   2/130/ 6
BUOY 41025       2250   82 86  310/  2/  4 1014.3F   2/ 6   2/ 60/ 6
CAPE LOOKOUT NC  2300   82     180/  4/  5 1014.1F
BUOY 41002       2250   83 84  280/  8/ 10 1014.9F   2/13   2/ 50/13
BUOY 41010       2220   88 88     CALM     1015.9F
ST AUGUSTINE FL  2300   80 85  190/ 10/ 11 1016.0F


$$


USA.gov is the U.S. government's official web portal to all federal, state and local government web resources and services.